User: anonymous   Login
Location: Bothwell
(42.3833°S, 147.0000°E)
Time: 04:51:53
(UTC+10:00)
Language:

AO-7 - Orbit

View from above orbital plane
View from above orbital plane
View from above satellite
View from above satellite

Ground track
Ground track

The orbit data is extracted from the following two-line orbital elements,

1 07530U 74089B   22270.49984939 -.00000050  00000-0 -22339-4 0  9991
2 07530 101.9167 250.7311 0011950 205.3082 285.3371 12.53657215190250
Epoch (UTC): 27 September 2022 11:59:46
Eccentricity: 0.0011950
inclination: 101.9167°
perigee height: 1440 km
apogee height: 1458 km
right ascension of ascending node: 250.7311°
argument of perigee: 205.3082°
revolutions per day: 12.53657215
mean anomaly at epoch: 285.3371°
orbit number at epoch: 19025

The dashed part of the orbit path shows where the satellite is in the earth's shadow,  

DLR